Flag Weather past 2 weeks in Myrtle Beach, South Carolina, U.S.A.

Now
37 °F

Clear.


Feels Like: 31 °F
Forecast: 33 / 46 °F
Wind: 8 mph from Northwest

Location: Myrtle Beach Air Force Base

Current Time: Nov 28, 2014 at 3:49:27 AM

Latest Report: Nov 28, 2014 at 3:35 AM


Visibility: 10 mi

Pressure: 30.30 "Hg

Humidity: 75%

Dew point: 30 °F

Location of Myrtle BeachLocation

Historic Weather in Myrtle Beach — Graph

°F

Myrtle Beach temperature yesterday

Maximum temperature yesterday: 55 °F (at 12:45 PM)
Minimum temperature yesterday: 39 °F (at 8:45 PM)
Average temperature yesterday: 46 °F

Past Weeks' High & Low Weather Summary

 TemperatureHumidityPressure
High73 °F (Nov 17, 11:40 AM)94% (Nov 16, 8:45 PM)30.55 "Hg (Nov 16, 8:45 PM)
Low25 °F (Nov 19, 4:15 AM)25% (Nov 20, 12:45 PM)29.70 "Hg (Nov 17, 5:45 PM)
Average50 °F72%30.15 "Hg
* Reported Nov 13 2:15 AM — Nov 28 2:35 AM, Myrtle Beach, Weather by CustomWeather, © 2014

Note: Actual official high and low records may vary slightly from our data, if they occured in-between our weather recording intervals... More about our weather records

Advertising

Myrtle Beach weather history for previous 24 hours

 ConditionsComfort  
Time TempWeatherWind HumidityBarometerVisibility
2:35 AM
Nov 28
37 °FClear.8 mph75%30.29 "Hg10 mi
2:15 AM37 °FClear.8 mph75%30.28 "Hg10 mi
1:55 AM37 °FClear.8 mph75%30.28 "Hg10 mi
1:35 AM37 °FClear.7 mph81%30.28 "Hg10 mi
1:15 AM37 °FClear.7 mph81%30.28 "Hg10 mi
12:55 AM37 °FClear.6 mph81%30.27 "Hg10 mi
12:35 AM39 °FClear.5 mph75%30.28 "Hg10 mi
12:15 AM39 °FClear.6 mph70%30.28 "Hg10 mi
11:55 PM
Nov 27
41 °FClear.7 mph70%30.27 "Hg10 mi
11:35 PM41 °FClear.7 mph76%30.27 "Hg10 mi
11:15 PM43 °FClear.8 mph71%30.27 "Hg10 mi
9:45 PM43 °FClear.9 mph76%30.24 "Hg10 mi
8:45 PM39 °FClear.7 mph87%30.22 "Hg10 mi
7:45 PM41 °FClear.6 mph81%30.20 "Hg10 mi
6:45 PM46 °FClear.6 mph66%30.19 "Hg10 mi
5:45 PM50 °FClear.12 mph54%30.16 "Hg10 mi
4:45 PM52 °FScattered clouds.10 mph50%30.14 "Hg10 mi
3:45 PM54 °FPartly sunny.16 mph47%30.10 "Hg10 mi
2:47 PM55 °FBroken clouds.14 mph44%30.07 "Hg10 mi
12:45 PM55 °FSunny.14 mph44%30.05 "Hg10 mi
11:45 AM54 °FSunny.14 mph51%30.06 "Hg10 mi
10:45 AM52 °FSunny.13 mph54%30.08 "Hg10 mi
9:45 AM52 °FSunny.15 mph54%30.07 "Hg10 mi
8:45 AM48 °FSunny.9 mph62%30.08 "Hg10 mi
7:50 AM46 °FPassing clouds.9 mph66%30.06 "Hg10 mi
6:49 AM46 °FPassing clouds.10 mph66%30.05 "Hg10 mi
5:53 AM45 °FPassing clouds.8 mph76%30.06 "Hg10 mi
5:35 AM45 °FMostly cloudy.7 mph76%30.06 "Hg10 mi
5:15 AM43 °FPassing clouds.6 mph81%30.06 "Hg10 mi
4:55 AM43 °FPassing clouds.7 mph81%30.07 "Hg10 mi
4:35 AM43 °FPassing clouds.6 mph81%30.08 "Hg10 mi
4:15 AM43 °FPassing clouds.7 mph87%30.08 "Hg10 mi
3:55 AM43 °FClear.6 mph81%N/A10 mi
3:35 AM43 °FClear.5 mph87%N/A10 mi
3:15 AM43 °FClear.8 mph87%30.10 "Hg10 mi
Weather by CustomWeather, © 2014

See weather overviewHow to use our weather pages